{"data":{"norad_id":59077,"intl_designator":"2024-041D","name":"STARLINK-31281","alt_names":[],"object_type":"PAYLOAD","status":"ACTIVE","operator":null,"country":"US","launch_date":"2024-02-29","launch_site_code":"AFETR","launch_vehicle":null,"mission":null,"orbit_class":"UNKNOWN","rcs_meters":null,"size_class":null,"mass_kg":null,"dimensions":null,"purposes":["comms"],"wikipedia_slug":null,"has_3d_model":false,"image_url":null,"decayed_at":null,"tle_current":{"epoch":"2026-09-20T03:20:14.984448Z","epoch_age_seconds":186749,"freshness":"STALE","line1":"1 59077U 24041D   26263.13906232  .00000156  00000+0  15192-4 0  9997","line2":"2 59077  43.0030 292.2489 0001079 267.1020  92.9708 15.27575020144065","mean_motion":15.2757502,"eccentricity":0.0001079,"inclination_deg":43.003,"raan_deg":292.2489,"arg_perigee_deg":267.102,"mean_anomaly_deg":92.9708,"bstar":1.5192e-5,"rev_number":14406,"period_min":94.267056029759,"perigee_km":482.32368440295,"apogee_km":483.80433158047,"semimajor_km":6861.2010079917,"source":"CELESTRAK","updated_at":"2026-09-21T09:00:34.033984Z"}}}